Minatare, NE

4:58 AM MST on February 10, 2016 (GMT -0700)
Heilig

Weather History for KBFF - June, 2013

Change the Weather History Date:

Friday, June 14, 2013

  Actual Average Record
Temperature  
Mean Temperature 78 °F 67 °F  
Max Temperature 92 °F 82 °F 100 °F (1924)
Min Temperature 64 °F 52 °F 30 °F (1969)
Degree Days  
Heating Degree Days 0 2  
Month to date heating degree days 21 42  
Since 1 June heating degree days 21 42  
Since 1 July heating degree days 6306 6597  
Cooling Degree Days 13 4  
Month to date cooling degree days 59 38  
Year to date cooling degree days 113 61  
Since 1 June cooling degree days 59 38  
Growing Degree Days 28 (Base 50)    
Moisture  
Dew Point 47 °F    
Average Humidity 39    
Maximum Humidity 63    
Minimum Humidity 14    
Precipitation  
Precipitation T in 0.11 in 2.28 in (1982)
Month to date precipitation 0.29 1.51  
Year to date precipitation 4.93 7.83  
Snow  
Snow 0.00 in 0.00 in - ()
Month to date snowfall 0.0 0.0  
Since 1 July snowfall 43.9 42.1  
Snow Depth 0.00 in    
Sea Level Pressure  
Sea Level Pressure 29.77 in    
Wind  
Wind Speed 15 mph (West)    
Max Wind Speed 28 mph    
Max Gust Speed 43 mph    
Visibility 10 miles    
Events Rain    
T = Trace of Precipitation, MM = Missing Value Source: NWS Daily Summary

Daily Weather History Graph

Daily Weather History Graph

Search for Another Location

Airport or City:

Trip Planner

Search our weather history database for the weather conditions in past years. The results will help you decide how hot, cold, wet, or windy it might be!

Date:

Astronomy

Jun. 14, 2013 Rise Set
Actual Time 5:18 AM MDT 8:31 PM MDT
Civil Twilight 4:44 AM MDT 9:05 PM MDT
Nautical Twilight 4:00 AM MDT 9:49 PM MDT
Astronomical Twilight 3:07 AM MDT 10:42 PM MDT
Moon 11:00 AM MDT (6/14) No Moon Set
Length of Visible Light 16h 20m
Length of Day
15h 12m
Waxing Crescent, 31% of the Moon is Illuminated
Jun 14
Waxing Crescent
Jun 16
First Quarter
Jun 23
Full
Jun 29
Last Quarter
Jul 8
New

Hourly Weather History & Observations

Time (MDT) Temp. Heat Index Dew Point Humidity Pressure Visibility Wind Dir Wind Speed Gust Speed Precip Events Conditions
12:53 AM 69.1 °F - 48.9 °F 49% 29.73 in 10.0 mi ESE 10.4 mph - N/A   Clear
1:53 AM 73.0 °F - 48.0 °F 41% 29.71 in 10.0 mi SSE 17.3 mph - N/A   Clear
2:53 AM 73.9 °F - 48.0 °F 40% 29.69 in 10.0 mi SSE 20.7 mph 28.8 mph N/A   Clear
3:53 AM 73.0 °F - 50.0 °F 44% 29.67 in 10.0 mi SE 15.0 mph 31.1 mph N/A   Clear
4:53 AM 71.1 °F - 53.1 °F 53% 29.71 in 10.0 mi WNW 4.6 mph - N/A   Clear
5:53 AM 66.9 °F - 52.0 °F 59% 29.73 in 10.0 mi West 4.6 mph - N/A   Clear
6:53 AM 70.0 °F - 46.9 °F 44% 29.73 in 10.0 mi West 23.0 mph 31.1 mph N/A   Clear
7:53 AM 66.0 °F - 54.0 °F 65% 29.80 in 10.0 mi WNW 18.4 mph 32.2 mph N/A   Clear
8:53 AM 66.9 °F - 52.0 °F 59% 29.85 in 10.0 mi WNW 20.7 mph 29.9 mph N/A   Clear
9:53 AM 73.0 °F - 52.0 °F 48% 29.84 in 10.0 mi WNW 19.6 mph 26.5 mph N/A   Clear
10:53 AM 77.0 °F - 48.9 °F 37% 29.83 in 10.0 mi NW 15.0 mph 24.2 mph N/A   Clear
11:53 AM 82.9 °F - 48.9 °F 31% 29.81 in 10.0 mi NNW 17.3 mph 24.2 mph N/A   Clear
12:53 PM 87.1 °F - 45.0 °F 23% 29.79 in 10.0 mi NW 11.5 mph 24.2 mph N/A   Clear
1:53 PM 90.0 °F - 41.0 °F 18% 29.76 in 10.0 mi NNW 18.4 mph 25.3 mph N/A   Clear
2:53 PM 91.0 °F - 37.0 °F 15% 29.75 in 10.0 mi NW 15.0 mph - N/A   Clear
3:53 PM 91.0 °F - 35.1 °F 14% 29.73 in 10.0 mi NNW 13.8 mph 17.3 mph N/A   Clear
4:53 PM 91.0 °F - 37.0 °F 15% 29.71 in 10.0 mi NW 6.9 mph - N/A   Clear
5:53 PM 90.0 °F - 35.1 °F 14% 29.73 in 10.0 mi SE 3.5 mph - N/A   Clear
6:53 PM 82.9 °F - 52.0 °F 34% 29.75 in 10.0 mi SE 13.8 mph - N/A   Clear
7:53 PM 82.9 °F 81.8 °F 53.1 °F 36% 29.78 in 10.0 mi ESE 13.8 mph - N/A   Clear
8:53 PM 79.0 °F - 53.1 °F 40% 29.79 in 10.0 mi ESE 13.8 mph - N/A   Clear
9:53 PM 75.9 °F - 53.1 °F 45% 29.83 in 10.0 mi South 8.1 mph - N/A   Scattered Clouds
10:53 PM 72.0 °F - 48.9 °F 44% 29.87 in 10.0 mi SW 17.3 mph 21.9 mph 0.00 in Rain Light Rain
11:53 PM 72.0 °F - 46.9 °F 41% 29.85 in 10.0 mi South 17.3 mph 24.2 mph 0.00 in Rain Light Rain